Location: Waco, TX
(31.5480°N, 97.1670°W)
Time: 02:48:21
(UTC-05:00)

ISS - Pass Details

Date: 20 May 2018
Orbit: 402 x 407 km, 51.6° (Epoch: 27 May)

Event Time Altitude Azimuth Distance (km) Brightness Sun altitude
Rises 22:12:08 0° 242° (WSW) 2,307 0.3 -20.6°
Reaches altitude 10° 22:14:18 10° 251° (WSW) 1,450 -0.7 -21.0°
Maximum altitude 22:17:19 34° 319° (NW) 677 -2.1 -21.4°
Drops below altitude 10° 22:20:20 10° 27° (NNE) 1,454 -0.9 -21.9°
Sets 22:22:32 0° 37° (NE) 2,315 0.1 -22.2°
